Orbital Elements
Epoch 2021 Nov. 2.0 TT = JDT 2459520.5
T 2021 Nov. 3.11285 TT MPCW
q 2.0090038 (2000.0) P Q
n 0.13974183 Peri. 1.82793 -0.51629159 -0.85052685
a 3.6777746 Node 119.26823 +0.78427832 -0.51657071
e 0.4537447 Incl. 6.59807 +0.34402111 -0.09878652
P 7.05
From 616 observations 1970 Dec. 29-2015 Jan. 2, mean residual 0".7.
Nongravitational parameters A1 = +0.01, A2 = -0.0078.
|